[Date Prev][Date Next][Thread Prev][Thread Next] - [Date Index][Thread Index][Author Index]
2 Line ISS Keps 11-2
- Subject: [sarex] 2 Line ISS Keps 11-2
- From: "Dave Larsen PhD" <doc@xxxxxxxxxxx>
- Date: Fri, 2 Nov 2001 03:22:44 -0800
ISS
1 25544U 98067A 01306.20390104 .00070283 00000-0 87415-3 0 6781
2 25544 51.6388 114.6141 0008791 276.7214 264.9886 15.59266969168618
----
Via the sarex mailing list at AMSAT.ORG courtesy of AMSAT-NA.
To unsubscribe, send "unsubscribe sarex" to Majordomo@amsat.org
AMSAT Home